AAL3305 EGLL-KMIA

Flight info

Callsign AAL3305
Flight time N/A
Altitude 36000
Route CPT L9 BUCGO DCT FELCA DCT OFSOX DCT BANBA DCT DINIM/M082F370 NATF ALLRY/N0482F380 N476B TOPPS DCT BEEKN/N0477F400 Q97 KALDA DCT BGBRD Q101 SKARP Y313 HOAGG BNFSH3
Aircraft B772/H-SDE2E3FGHIJ5LORVWXY/LB1D1

Departure

Time 2026-05-04 15:51
Airport London Heathrow Airport (EGLL)

Arrival

Time N/A
Airport Miami International Airport (KMIA)
Time Latitude Longitude Altitude Speed Heading
2026-05-04 14:47 51.46983 -0.46296 89 ft 0 kts 236°
2026-05-04 15:37 51.46983 -0.46297 88 ft 0 kts 235°
2026-05-04 15:37 51.46982 -0.46297 88 ft 0 kts 235°
2026-05-04 15:38 51.46983 -0.46296 88 ft 0 kts 235°
2026-05-04 15:38 51.46992 -0.46275 89 ft 3 kts 237°
2026-05-04 15:38 51.47004 -0.46241 89 ft 3 kts 249°
2026-05-04 15:39 51.47008 -0.46209 90 ft 2 kts 280°
2026-05-04 15:39 51.47000 -0.46183 90 ft 3 kts 308°
2026-05-04 15:39 51.46993 -0.46172 91 ft 0 kts 328°
2026-05-04 15:42 51.46994 -0.46172 91 ft 0 kts 328°
2026-05-04 15:42 51.47032 -0.46209 90 ft 12 kts 329°
2026-05-04 15:42 51.47142 -0.46319 88 ft 22 kts 324°
2026-05-04 15:42 51.47241 -0.46524 84 ft 25 kts 272°
2026-05-04 15:43 51.47295 -0.46731 84 ft 19 kts
2026-05-04 15:43 51.47378 -0.46730 85 ft 4 kts 358°
2026-05-04 15:43 51.47429 -0.46744 86 ft 11 kts 347°
2026-05-04 15:43 51.47493 -0.46848 87 ft 15 kts 294°
2026-05-04 15:44 51.47531 -0.46924 88 ft 9 kts 346°
2026-05-04 15:44 51.47583 -0.46836 89 ft 15 kts 79°
2026-05-04 15:44 51.47591 -0.46623 89 ft 22 kts 90°
2026-05-04 15:44 51.47593 -0.46338 88 ft 27 kts 90°
2026-05-04 15:45 51.47594 -0.46054 89 ft 23 kts 90°
2026-05-04 15:45 51.47595 -0.45793 90 ft 22 kts 89°
2026-05-04 15:45 51.47598 -0.45554 92 ft 21 kts 89°
2026-05-04 15:45 51.47601 -0.45328 95 ft 19 kts 90°
2026-05-04 15:46 51.47599 -0.45125 98 ft 17 kts 93°
2026-05-04 15:46 51.47594 -0.44936 99 ft 16 kts 93°
2026-05-04 15:46 51.47592 -0.44773 98 ft 12 kts 87°
2026-05-04 15:46 51.47598 -0.44593 97 ft 19 kts 88°
2026-05-04 15:47 51.47602 -0.44334 97 ft 26 kts 90°
2026-05-04 15:47 51.47592 -0.43998 92 ft 33 kts 89°
2026-05-04 15:47 51.47593 -0.43705 87 ft 10 kts 90°
2026-05-04 15:47 51.47593 -0.43676 86 ft 0 kts 89°
2026-05-04 15:48 51.47594 -0.43663 86 ft 4 kts 89°
2026-05-04 15:48 51.47601 -0.43576 86 ft 11 kts 69°
2026-05-04 15:48 51.47610 -0.43550 86 ft 0 kts 51°
2026-05-04 15:49 51.47615 -0.43539 86 ft 5 kts 51°
2026-05-04 15:49 51.47665 -0.43443 86 ft 17 kts 50°
2026-05-04 15:49 51.47757 -0.43405 88 ft 15 kts 318°
2026-05-04 15:50 51.47768 -0.43510 89 ft 9 kts 273°
2026-05-04 15:50 51.47765 -0.43760 91 ft 55 kts 269°
2026-05-04 15:50 51.47764 -0.44815 98 ft 131 kts 269°
2026-05-04 15:50 51.47761 -0.46615 196 ft 183 kts 272°
2026-05-04 15:51 51.47738 -0.48625 1067 ft 181 kts 269°
2026-05-04 15:51 51.47538 -0.50611 1903 ft 188 kts 256°
2026-05-04 15:51 51.46981 -0.52499 2752 ft 194 kts 235°
2026-05-04 15:51 51.45996 -0.53890 3649 ft 194 kts 206°
2026-05-04 15:52 51.44712 -0.54633 4369 ft 203 kts 208°
2026-05-04 15:52 51.43700 -0.56233 4987 ft 217 kts 245°
2026-05-04 15:52 51.43428 -0.58666 5612 ft 231 kts 281°
2026-05-04 15:52 51.44003 -0.61159 5984 ft 264 kts 300°
2026-05-04 15:53 51.44973 -0.64004 5976 ft 315 kts 293°
2026-05-04 15:53 51.45461 -0.67705 5979 ft 362 kts 274°
2026-05-04 15:53 51.45502 -0.71937 5977 ft 405 kts 269°
2026-05-04 15:53 51.45439 -0.76715 5975 ft 444 kts 269°
2026-05-04 15:54 51.45373 -0.81860 5973 ft 479 kts 269°
2026-05-04 15:54 51.45306 -0.87339 5498 ft 507 kts 269°
2026-05-04 15:54 51.45236 -0.92955 824 ft 591 kts 270°
2026-05-04 15:54 51.45231 -0.93296 229 ft 2 kts 354°
2026-05-04 15:55 51.45213 -0.93279 171 ft 0 kts
2026-05-04 15:55 51.45214 -0.93279 171 ft 0 kts
2026-05-04 15:55 51.45215 -0.93279 171 ft 0 kts